ContactaLinksHome
    
DADES METEOROLÒGIQUES DE LES ÚLTIMES 24 HORES
 

Taire  Temperatura de l'aire  (ºC)
HumitatR  Humitat relativa de l'aire (%)
Pluja  Litres de pluja per metre cuadrat caiguts en 10 minuts (l/m²)
VelVent  Velocitat mitjana del vent (m/s)
DirVent  Direcció del vent  (º)
RadSolar  Intensitat de Radiació solar (w/m²)
PressAtm  Pressió atmosfèrica (mb)
  ***Dades sense verificar
DataTaireHumitatRPlujaVelVentDirVentRadSolarPressAtm
28/05/2017 4:40:0018.4680,01.731291019
28/05/2017 4:30:0018.5680,00.831731019
28/05/2017 4:20:0018.5680,00.833401019
28/05/2017 4:10:0018.6680,00.932201019
28/05/2017 4:00:0018.6680,01.232401019
28/05/2017 3:50:0018.7680,01.032901019
28/05/2017 3:40:0018.8680,01.131001019
28/05/2017 3:30:0018.8680,01.132501019
28/05/2017 3:20:0018.9680,00.833501019
28/05/2017 3:10:0019.0680,00.732701019
28/05/2017 3:00:0019.0670,00.932701019
28/05/2017 2:50:0019.0670,01.032501019
28/05/2017 2:40:0019.0660,01.033601019
28/05/2017 2:30:0019.1670,01.035901019
28/05/2017 2:20:0019.1670,00.72501019
28/05/2017 2:10:0019.1670,00.735101019
28/05/2017 2:00:0019.1660,00.635501019
28/05/2017 1:50:0019.1660,00.835401019
28/05/2017 1:40:0019.2640,00.834101019
28/05/2017 1:30:0019.4640,01.034701019
28/05/2017 1:20:0019.4640,01.333201019
28/05/2017 1:10:0019.3670,01.233001019
28/05/2017 1:00:0019.2740,00.931701019
28/05/2017 0:50:0019.4740,00.87501019
28/05/2017 0:40:0019.7740,00.78001019
28/05/2017 0:30:0019.7720,00.011601019
28/05/2017 0:20:0019.6700,00.232601019
28/05/2017 0:10:0019.6680,00.212801019
28/05/2017 0:00:0019.6680,00.631501019
27/05/2017 23:50:0019.5710,01.0301019
27/05/2017 23:40:0019.5750,00.834201019
27/05/2017 23:30:0019.4800,00.933201020
27/05/2017 23:20:0019.0840,00.834301020
27/05/2017 23:10:0018.9860,00.435601020
27/05/2017 23:00:0018.8870,00.35801020
27/05/2017 22:50:0019.0870,00.335001020
27/05/2017 22:40:0019.1880,00.85901020
27/05/2017 22:30:0019.2880,00.81701020
27/05/2017 22:20:0019.2880,00.54701020
27/05/2017 22:10:0019.2880,00.46201020
27/05/2017 22:00:0019.2880,00.23501020
27/05/2017 21:50:0019.1880,00.312801020
27/05/2017 21:40:0019.1880,00.68801020
27/05/2017 21:30:0019.1880,00.57701020
27/05/2017 21:20:0019.1880,00.57501020
27/05/2017 21:10:0019.0880,00.88801020
27/05/2017 21:00:0019.0870,00.87401020
27/05/2017 20:50:0019.1870,00.87501019
27/05/2017 20:40:0019.1870,01.16101019
27/05/2017 20:30:0019.1870,01.17401019
27/05/2017 20:20:0019.1870,01.26901019
27/05/2017 20:10:0019.1870,01.46901019
27/05/2017 20:00:0019.1870,01.57101019
27/05/2017 19:50:0019.2870,01.37401019
27/05/2017 19:40:0019.2860,01.36701019
27/05/2017 19:30:0019.3860,01.47501019
27/05/2017 19:20:0019.4850,01.37701019
27/05/2017 19:10:0019.5850,01.37331019
27/05/2017 19:00:0019.6850,01.366101019
27/05/2017 18:50:0019.9840,01.565201019
27/05/2017 18:40:0020.0840,01.468421019
27/05/2017 18:30:0020.0840,01.364731019
27/05/2017 18:20:0020.0850,01.578871019
27/05/2017 18:10:0019.8850,01.567931018
27/05/2017 18:00:0019.7850,01.5921361018
27/05/2017 17:50:0019.7850,01.3911861018
27/05/2017 17:40:0019.6850,01.6922121018
27/05/2017 17:30:0019.5860,01.7922431018
27/05/2017 17:20:0019.5850,01.9962761018
27/05/2017 17:10:0019.6860,02.1923061018
27/05/2017 17:00:0019.5860,01.9903361018
27/05/2017 16:50:0019.3860,01.81043681018
27/05/2017 16:40:0019.3860,02.0994011018
27/05/2017 16:30:0019.5860,02.1984331018
27/05/2017 16:20:0019.5860,01.8784631018
27/05/2017 16:10:0019.3870,02.4824941018
27/05/2017 16:00:0019.0870,03.1975281018
27/05/2017 15:50:0018.9860,03.1985531019
27/05/2017 15:40:0018.9860,03.21025681019
27/05/2017 15:30:0018.9860,03.71066091019
27/05/2017 15:20:0018.9860,03.71026371019
27/05/2017 15:10:0018.9860,03.81036481019
27/05/2017 15:00:0018.9860,03.91076901019
27/05/2017 14:50:0018.9860,03.91117221019
27/05/2017 14:40:0018.9860,03.81167501019
27/05/2017 14:30:0019.0860,03.61007751019
27/05/2017 14:20:0019.1850,03.3947991019
27/05/2017 14:10:0019.1850,03.4938231019
27/05/2017 14:00:0019.1860,03.4878431019
27/05/2017 13:50:0019.1860,03.5908631019
27/05/2017 13:40:0019.1860,03.1918781019
27/05/2017 13:30:0019.2860,03.2908931019
27/05/2017 13:20:0019.0860,03.9939101019
27/05/2017 13:10:0018.9850,04.1989241019
27/05/2017 13:00:0018.9850,03.91069371019
27/05/2017 12:50:0019.1850,04.0949491019
27/05/2017 12:40:0019.2840,03.8879591019
27/05/2017 12:30:0019.1830,03.7909671019
27/05/2017 12:20:0019.1830,03.9959721019
27/05/2017 12:10:0019.1830,04.0879761019
27/05/2017 12:00:0019.2830,04.1799791019
27/05/2017 11:50:0019.1830,04.0949801019
27/05/2017 11:40:0019.2840,04.3909811019
27/05/2017 11:30:0019.1840,04.5779811019
27/05/2017 11:20:0019.0840,04.6869781019
27/05/2017 11:10:0019.2850,03.8839721019
27/05/2017 11:00:0018.9840,04.4989651019
27/05/2017 10:50:0018.9840,04.7919551019
27/05/2017 10:40:0018.9830,05.2959471019
27/05/2017 10:30:0019.0830,05.6949371019
27/05/2017 10:20:0019.1810,05.51069191019
27/05/2017 10:10:0019.1800,05.2979051019
27/05/2017 10:00:0019.1820,05.3978601019
27/05/2017 9:50:0019.2820,05.51027911019
27/05/2017 9:40:0019.5800,05.71068261019
27/05/2017 9:30:0019.6770,05.0978201019
27/05/2017 9:20:0019.6770,05.21087941019
27/05/2017 9:10:0019.6770,05.31117671019
27/05/2017 9:00:0019.7770,05.61157231019
27/05/2017 8:50:0019.7770,06.01116891019
27/05/2017 8:40:0019.7780,06.01126891019
27/05/2017 8:30:0019.8780,05.51146611019
27/05/2017 8:20:0019.7790,05.51126451019
27/05/2017 8:10:0019.8780,05.41146101019
27/05/2017 8:00:0020.1780,04.71125771019
27/05/2017 7:50:0020.1770,03.61165261019
27/05/2017 7:40:0020.3760,02.91024981019
27/05/2017 7:30:0020.5760,02.5964521019
27/05/2017 7:20:0021.0740,01.6954361019
27/05/2017 7:10:0021.7700,01.21224061018
27/05/2017 7:00:0022.7660,00.71213911018
27/05/2017 6:50:0022.2670,00.41113731018
27/05/2017 6:40:0022.2700,00.31003671018
27/05/2017 6:30:0020.9700,00.41202481018
27/05/2017 6:20:0020.7710,00.52042871018
27/05/2017 6:10:0020.2720,00.81942101018
27/05/2017 6:00:0020.2720,00.3218881018
27/05/2017 5:50:0020.1720,00.857551018
27/05/2017 5:40:0020.1720,00.457421018
27/05/2017 5:30:0020.0720,00.465321018
27/05/2017 5:20:0019.9720,00.7349251018
27/05/2017 5:10:0019.8720,00.836211018
27/05/2017 5:00:0019.8720,00.9334161018
27/05/2017 4:50:0019.8730,01.712101018

ÚLTIMES FOTOS WEBCAM
Imatges del Pont
ÚLTIMES DADES

28/05/2017  
6:40h Local  (4:40 GMT)
 
 Velocitat mitjana del Vent
   1,7 m/s
 Direcció del Vent
   312º
 Humitat Relativa
   68 %
 Temperatura Aparent
   18,4 ºC
 Pluja Acumulada
   0,0 l/m²
      
 Temperatura de l'aigua    N/A
 Alçada d'ona    N/A
 Direcció d'ona    N/A
 Velocitat del corrent    N/A
 Direcció del corrent    N/A